Weather observations for the past three days for
Huntington, Tri-State Airport
Imperial (Metric)
Date Time (edt) Wind (mph) Vis. (mi.) Weather Sky Cond. Temperature (ºF) Relative Humidity Wind Chill (°F) Heat Index (°F) Pressure Precipitation (in)
Air Dwpt 6 hour altimeter (in) sea level (mb) 1 hr 3 hr 6 hr
Max. Min.
22 05:51 N 3 10.00 Partly Cloudy FEW055 SCT090 72 61 68% 29.99 1014.4
22 04:51 Calm 10.00 Fair CLR 72 61 68% 29.98 1014.4
22 03:51 Calm 10.00 Fair CLR 73 61 66% 29.98 1014.2
22 02:51 N 5 10.00 Fair CLR 73.9 60.1 62% 30 1014.8
22 01:51 N 5 10.00 A Few Clouds FEW060 FEW075 75 61 84 75 62% 77 30.02 1015.6
22 00:51 NE 5 10.00 Mostly Cloudy BKN055 77 62.1 60% 79 30.03 1016.0
21 23:51 NE 6 10.00 A Few Clouds FEW080 78.1 62.1 58% 80 30.03 1016.0
21 22:51 NE 3 10.00 Fair CLR 80.1 62.1 54% 81 30.04 1016.2
21 21:51 Calm 10.00 Fair CLR 81 63 54% 82 30.03 1015.9
21 20:51 Calm 10.00 A Few Clouds FEW110 82 64 55% 84 30.02 1015.6
21 19:51 Vrbl 5 10.00 Fair CLR 84 64.9 89.1 82.9 53% 86 30.01 1015.4
21 18:51 N 7 10.00 Mostly Cloudy SCT045 BKN055 87.1 66 50% 89 30.01 1015.3
21 17:51 Vrbl 6 10.00 A Few Clouds FEW044 88 66 48% 90 30.02 1015.6
21 16:51 NE 7 10.00 Mostly Cloudy SCT035 BKN100 86 66.9 53% 89 30.03 1016.0
21 15:51 Vrbl 5 10.00 A Few Clouds FEW035 86 66 51% 88 30.04 1016.6
21 14:51 Calm 10.00 Overcast OVC034 84 66.9 57% 87 30.06 1017.1
21 13:51 Vrbl 5 10.00 A Few Clouds FEW035 84.9 66.9 84.9 71.1 55% 88 30.07 1017.4
21 12:51 W 3 10.00 Partly Cloudy FEW037 SCT120 82.9 66 57% 85 30.08 1017.8
21 11:51 Vrbl 6 10.00 Fair CLR 82.9 64.9 55% 85 30.09 1018.1
21 10:51 E 5 10.00 A Few Clouds FEW080 82 64.9 56% 84 30.09 1018.0
21 09:51 SE 3 10.00 Partly Cloudy SCT080 78.1 66 67% 80 30.08 1017.9
21 08:51 Calm 10.00 Fair CLR 75.9 64.9 69% 78 30.09 1018.0
21 07:51 Calm 7.00 Fair CLR 72 66 72 66.9 82% 30.08 1017.7
21 06:51 Calm 5.00 Fog/Mist CLR 68 64.9 90% 30.07 1017.6
21 05:51 Calm 8.00 Mostly Cloudy BKN100 68 64.9 90% 30.07 1017.5
21 04:51 NE 3 8.00 Fair CLR 68 64 87% 30.07 1017.3
21 03:51 Calm 10.00 Fair CLR 70 64.9 84% 30.07 1017.3
21 02:51 Calm 10.00 Fair CLR 72 66 82% 30.07 1017.4
21 01:51 Calm 10.00 Overcast OVC095 72 64.9 84 72 79% 30.07 1017.6
21 00:51 S 3 10.00 Overcast OVC080 73.9 66 76% 30.08 1017.6
20 23:51 Calm 10.00 A Few Clouds FEW085 73 64.9 76% 30.07 1017.5
20 22:51 S 3 10.00 Fair CLR 75.9 64 67% 78 30.07 1017.6
20 21:51 Calm 10.00 Fair CLR 78.1 63 60% 80 30.07 1017.5
20 20:51 S 3 10.00 Partly Cloudy SCT110 81 62.1 53% 82 30.06 1017.0
20 19:51 SE 5 10.00 Overcast OVC100 84 62.1 88 75 48% 85 30.05 1016.7
20 18:51 Calm 10.00 Mostly Cloudy BKN110 84.9 60.1 43% 85 30.05 1016.8
20 17:51 SE 5 10.00 Mostly Cloudy BKN100 86 61 43% 86 30.05 1016.9
20 16:51 Vrbl 5 10.00 Fair CLR 84.9 62.1 46% 85 30.06 1017.2
20 15:51 E 5 10.00 Fair CLR 84 61 46% 84 30.08 1017.7
20 14:51 N 5 10.00 A Few Clouds FEW110 84 63 49% 85 30.09 1018.1
20 13:51 S 3 10.00 Light Rain SCT037 SCT060 BKN090 75 66 81 70 74% 76 30.1 1018.4
20 12:51 SW 6 10.00 Overcast BKN070 OVC095 79 61 54% 80 30.12 1019.1
20 11:51 Calm 10.00 Mostly Cloudy BKN100 80.1 60.1 51% 81 30.1 1018.6
20 10:51 Vrbl 3 10.00 Mostly Cloudy BKN075 BKN100 78.1 60.1 54% 79 30.11 1018.8
20 09:51 Calm 10.00 Mostly Cloudy BKN075 75.9 60.1 58% 78 30.11 1018.7
20 08:51 N 3 10.00 Mostly Cloudy BKN080 72 59 64% 30.1 1018.3
20 07:51 N 6 10.00 Mostly Cloudy BKN080 BKN100 70 60.1 73 68 71% 30.09 1018.2
20 06:51 N 3 10.00 A Few Clouds FEW095 68 61 78% 30.08 1017.8
20 05:51 Calm 10.00 Mostly Cloudy BKN080 69.1 60.1 73% 30.07 1017.4
20 04:51 N 3 10.00 Overcast BKN080 OVC090 70 60.1 71% 30.06 1017.0
20 03:51 Calm 10.00 A Few Clouds FEW080 71.1 59 66% 30.06 1017.1
20 02:51 N 3 10.00 Partly Cloudy SCT090 72 57.9 61% 30.07 1017.3
20 01:51 Calm 10.00 Fair CLR 73 59 82 72 62% 30.08 1017.7
20 00:51 NE 5 10.00 Fair CLR 73.9 59 60% 30.09 1018.0
19 23:51 Calm 10.00 Fair CLR 73.9 59 60% 30.09 1018.1
19 22:51 Calm 10.00 Fair CLR 77 57.9 52% 79 30.09 1018.0
19 21:51 N 3 10.00 Fair CLR 78.1 57.9 50% 79 30.08 1017.8
19 20:51 N 5 10.00 Fair CLR 79 57.9 49% 80 30.08 1017.8
19 19:51 N 7 10.00 Fair CLR 82 57.9 88 82 44% 82 30.07 1017.5
19 18:51 N 10 10.00 Fair CLR 84 57.9 41% 83 30.05 1016.9
19 17:51 N 5 10.00 A Few Clouds FEW070 86 55.9 36% 85 30.06 1017.0
19 16:51 N 6 10.00 Fair CLR 88 55 33% 86 30.07 1017.3
19 15:51 Vrbl 6 10.00 Partly Cloudy SCT080 86 54 33% 84 30.08 1017.9
19 14:51 Vrbl 3 10.00 Fair CLR 87.1 55.9 35% 86 30.1 1018.5
19 13:51 Vrbl 5 10.00 Fair CLR 84.9 57 86 64.9 39% 84 30.12 1019.3
19 12:51 N 6 10.00 Fair CLR 82.4 57.2 42% 82 30.14 0.0
19 11:51 E 7 10.00 Fair CLR 80.6 57.2 45% 81 30.15 0.0
19 10:51 N 9 10.00 Fair CLR 77 57.9 52% 79 30.16 1020.4
19 09:51 Vrbl 5 10.00 Fair CLR 73 57 57% 30.16 1020.7
19 08:51 NE 8 10.00 A Few Clouds FEW065 69.1 55.9 63% 30.16 1020.6
19 07:51 N 6 10.00 Partly Cloudy SCT065 66 55.9 69.1 64 70% 30.15 1020.2
19 06:51 N 5 10.00 Fair CLR 64 55 73% 30.13 1019.7
Date Time (edt) Wind (mph) Vis. (mi.) Weather Sky Cond. Air Dwpt Max. Min. Relative Humidity Wind Chill (°F) Heat Index (°F) altimeter (in) sea level (mb) 1 hr 3 hr 6 hr
6 hour
Temperature (ºF) Pressure Precipitation (in)